Terminal Aerodrome Forecast
Issued by NWS Dodge City, KS

Home | Current Version | Previous Version | Text Only | Print | Product List | Glossary On
Versions: 1 2 3 4 5 6 7 8 9 10 11 12 13 14 15 16 17 18 19 20 21 22 23 24 25 26 27 28
000
FTUS43 KDDC 060545
TAFDDC
TAF
KDDC 060545Z 0606/0706 17013G20KT P6SM BKN090
     FM061500 31015G25KT P6SM BKN150 PROB30 0617/0621 6SM -TSRA
      OVC030CB
     FM062100 01016KT P6SM SCT025
     FM070300 02013KT P6SM BKN015=

USA.gov is the U.S. government's official web portal to all federal, state and local government web resources and services.